Regional Weather Roundup
Issued by NWS

Home | Current Version | Previous Version | Text Only | Print | Product List | Glossary Off
Versions: 1 2 3 4 5 6 7 8 9 10 11 12 13 14 15 16 17 18 19 20 21 22 23 24 25 26 27 28 29 30 31 32 33 34 35 36 37 38 39 40 41 42 43 44 45 46 47 48 49 50

563
ASUS45 KBOI 271710
RWRID

IDAHO REGIONAL WEATHER ROUNDUP
NATIONAL WEATHER SERVICE BOISE ID
1100 AM MDT SAT AUG 27 2016

NOTE: "FAIR" INDICATES FEW OR NO CLOUDS BELOW 12000 FEET
WITH NO SIGNIFICANT WEATHER AND/OR OBSTRUCTIONS TO VISIBILITY

IDZ012-014-271800-
SOUTHWEST IDAHO


CITY           SKY/WX    TMP DP  RH WIND       PRES   REMARKS
BOISE          SUNNY     76  32  20 SE7       29.95S
CALDWELL       SUNNY     74  39  28 E5        29.95S
MOUNTAIN HOME  SUNNY     74  37  25 E8        29.96S HAZE
$$

IDZ016-017-271800-
SOUTHCENTRAL IDAHO


CITY           SKY/WX    TMP DP  RH WIND       PRES   REMARKS
BURLEY         SUNNY     71  44  37 CALM      30.02F
JEROME         SUNNY     70  33  25 SW5       30.03S
TWIN FALLS     SUNNY     76  39  26 N5        30.03S
$$

IDZ019>023-271800-
SOUTHEAST IDAHO


CITY           SKY/WX    TMP DP  RH WIND       PRES   REMARKS
IDAHO FALLS    SUNNY     70  32  24 SW14      30.07F
POCATELLO      SUNNY     74  34  23 NW7       30.06S
REXBURG        SUNNY     67  33  28 SW13      30.07F
$$

IDZ006-010-011-018-031-032-271800-
CENTRAL IDAHO MOUNTAINS


CITY           SKY/WX    TMP DP  RH WIND       PRES   REMARKS
MCCALL         MOSUNNY   63  37  38 CALM      30.04S
HAILEY         MOSUNNY   66  34  30 CALM      30.09S
STANLEY          N/A     57  31  37 VRB3      30.14F
SALMON         SUNNY     59  37  44 NE3       30.01F
CHALLIS        SUNNY     63  33  32 NE5       30.05F
$$

IDZ002-004-006-007-026-271800-
NORTHERN IDAHO


CITY           SKY/WX    TMP DP  RH WIND       PRES   REMARKS
LEWISTON       PTSUNNY   75  41  29 NE8       29.80F
LOWELL           N/A     65  45  48 CALM      29.88F
COEUR D`ALENE  SUNNY     75  41  29 MISG      29.77F
MULLAN PASS    PTSUNNY   56  34  43 SW10G17   29.97S
$$




USA.gov is the U.S. government's official web portal to all federal, state and local government web resources and services.